LIVE Streaming HD
Get Adobe Flash player
Annunci di Google
Annunci di Vedetta
Annunci di Google
Fasi Lunari
Satellite
satellite e T nubi
Previsione
Dati meteo stazione (refresh automatico ogni minuto)
Senigallia(AN) VENTO: VELOCITÀ   PIOGGIA: QTA GIORNO TEMPERATURA: ATTUALE
SPOT: Darsena Di Senigallia RAFFICA MASSIMA: QTA MENSILE: MASSIMA:
VELOCITÀ MEDIA: QTA ANNUALE: MINIMA:
DIREZIONE: UMIDITÀ: WIND CHILL:
TIPO: DEW POINT:
BEAUFORT: PRESSIONE:
I nostri partner
Senigallia(AN) nelle ultime ore
Applica filtri in visualizzazione Intervallo delle letture nelle ultime

Ora Direzione Vento Velocita' Vento Media Vento Raffica Max. Temperatura Wind Chill Pioggia Pressione
07:12:22225 °(SW)8.7 Kts7 Kts14.8 Kts18.6 °C16.2 °C0 mm1019.7 Hpa
07:07:09236 °(SW)7.8 Kts7.8 Kts14.8 Kts18.2 °C15.4 °C0 mm1019.8 Hpa
07:01:56215 °(SW)8.7 Kts8.7 Kts14.8 Kts18.1 °C14.5 °C0 mm1019.5 Hpa
06:56:41236 °(SW)9.6 Kts8.7 Kts14.8 Kts17.7 °C14.2 °C0 mm1019.5 Hpa
06:52:31229 °(SW)9.6 Kts9.6 Kts14.8 Kts17.7 °C13.8 °C0 mm1019.5 Hpa
06:47:17225 °(SW)8.7 Kts9.6 Kts14.8 Kts17.6 °C13.6 °C0 mm1019.6 Hpa
06:41:31217 °(SW)9.6 Kts9.6 Kts14.8 Kts17.4 °C13.4 °C0 mm1019.6 Hpa
06:37:07232 °(SW)10.4 Kts8.7 Kts14.8 Kts17.2 °C13.6 °C0 mm1019.5 Hpa
06:31:55225 °(SW)7.8 Kts8.7 Kts14.8 Kts17.2 °C13.5 °C0 mm1019.6 Hpa
06:26:41221 °(SW)7.8 Kts9.6 Kts14.8 Kts17.1 °C12.9 °C0 mm1019.5 Hpa
06:22:31227 °(SW)10.4 Kts9.6 Kts14.8 Kts16.9 °C12.8 °C0 mm1019.5 Hpa
06:17:18225 °(SW)9.6 Kts8.7 Kts14.8 Kts16.7 °C13 °C0 mm1019.6 Hpa
06:12:04214 °(SW)7.8 Kts8.7 Kts14.8 Kts16.8 °C12.9 °C0 mm1019.6 Hpa
06:06:48228 °(SW)11.3 Kts9.6 Kts14.8 Kts16.8 °C12.6 °C0 mm1019.5 Hpa
06:02:35220 °(SW)7.8 Kts9.6 Kts14.8 Kts16.7 °C12.5 °C0 mm1019.5 Hpa
05:56:40232 °(SW)9.6 Kts9.6 Kts14.8 Kts16.7 °C12.5 °C0 mm1019.5 Hpa
05:52:29221 °(SW)7.8 Kts9.6 Kts14.8 Kts16.7 °C12.4 °C0 mm1019.5 Hpa
05:47:15218 °(SW)8.7 Kts9.6 Kts14.8 Kts16.7 °C12.5 °C0 mm1019.6 Hpa
05:41:22221 °(SW)9.6 Kts8.7 Kts14.8 Kts16.7 °C12.8 °C0 mm1019.6 Hpa
05:37:36237 °(WSW)7.8 Kts9.6 Kts14.8 Kts16.7 °C12.5 °C0 mm1019.6 Hpa
05:32:02254 °(WSW)7.8 Kts9.6 Kts14.8 Kts16.8 °C12.6 °C0 mm1019.5 Hpa
05:26:43229 °(SW)10.4 Kts8.7 Kts14.8 Kts16.7 °C13 °C0 mm1019.5 Hpa
05:22:31219 °(SW)11.3 Kts8.7 Kts14.8 Kts16.7 °C13 °C0 mm1019.5 Hpa
05:17:12254 °(WSW)7.8 Kts8.7 Kts13.9 Kts16.9 °C13 °C0 mm1019.5 Hpa